SCP
0 0 0 0 0 0 0 0 0 0 0 0 0 0 0 0 0 0 0 0 0 0
0 0 0 0 0 0 0 0 0 0 0 0 0 0 0 0 0 0 0 0 0 0
0 0 0 0 0 0 0 0 0 0 0 0 0 0 0 0 0 0 0 0 0 0
0 0 0 0 0 0 0 0 0 0 0 0 0 0 0 0 0 0 0 0 0 0
0 0 0 0 0 0 0 0 0 0 0 0 0 0 0 0 0 0 0 0 0 0
0 0 0 0 0 0 0 0 0 0 0 0 0 0 0 0 0 0 0 0 0 0
0 0 0 0 0 0 0 0 0 0 0 0 0 0 0 0 0 0 0 0 0 0
0 0 0 0 0 0 0 0 0 0 0 0 0 0 0 0 0 0 0 0 0 0
0 0 0 0 0 0 0 0 0 0 0 0 0 0 0 0 0 0 0 0 0 0
0 0 0 0 0 0 0 0 0 0 0 0 0 0 0 0 0 0 0 0 0 0
0 0 0 0 0 0 0 0 0 0 0 0 0 0 0 0 0 0 0 0 0 0
0 0 0 0 0 0 0 0 0 0 0 0 0 0 0 0 0 0 0 0 0 0
0 0 0 0 0 0 0 0 0 0 0 0 0 0 0 0 0 0 0 0 0 0
0 0 0 0 0 0 0 0 0 0 0 0 0 0 0 0 0 0 0 0 0 0
Wind_Speed_500mb
16 11 12 16 19 24 28 24 23 21 23 23 31 46 42 40 41 46 49 53 58 63
3 8 7 17 22 17 16 12 14 15 19 25 26 29 37 44 49 54 57 62 66 70
12 15 10 7 9 15 13 14 17 21 26 32 35 42 51 56 60 67 70 72 75 75
5 8 3 7 7 7 9 16 24 30 36 43 49 54 57 59 62 67 69 69 73 75
13 12 13 17 18 19 22 24 29 35 40 46 52 57 61 64 65 68 71 71 71 72
18 20 22 24 27 31 33 38 42 46 50 52 56 58 57 57 58 59 62 65 70 75
23 26 28 30 34 39 44 45 46 46 47 47 47 44 41 40 44 48 49 51 53 55
17 21 27 34 39 39 36 37 36 35 34 33 33 32 32 39 46 48 50 49 47 46
25 29 34 36 36 35 33 27 29 31 34 37 36 34 38 42 47 51 55 57 58 59
27 30 32 28 28 29 26 30 34 36 38 33 30 27 35 39 45 51 54 58 62 61
27 24 23 22 22 20 30 36 35 34 35 36 36 37 39 39 44 49 53 57 60 63
16 21 26 22 20 30 38 35 40 44 44 42 39 41 41 38 43 53 58 58 61 64
16 21 22 17 25 29 34 38 43 40 45 45 50 46 43 43 46 55 59 64 66 57
12 20 11 18 19 28 34 38 38 43 51 57 54 51 44 41 43 45 54 61 52 46
Wind_Direction_500mb
230 196 184 179 204 215 217 210 206 213 204 203 215 241 235 240 247 254 258 260 262 265
288 225 236 173 166 171 186 184 197 223 236 244 244 246 253 256 261 265 268 270 269 267
293 224 283 244 191 213 246 266 274 280 279 279 280 274 272 271 271 273 272 272 271 272
236 62 169 223 194 225 275 285 287 289 291 292 288 288 287 287 284 281 280 279 280 278
345 341 317 332 330 324 320 312 309 305 301 298 295 293 293 291 289 288 286 284 282 281
334 328 330 326 324 321 318 315 312 308 305 303 301 300 300 299 296 294 292 290 288 286
325 324 319 317 318 317 315 315 314 310 307 306 304 306 308 309 312 308 306 302 298 300
307 302 307 309 311 316 325 327 325 324 321 321 317 315 316 318 316 311 305 302 305 305
300 306 307 311 318 328 331 331 334 331 329 319 307 304 312 313 311 313 307 303 302 299
292 296 299 304 316 324 330 331 330 329 329 327 328 325 319 315 310 308 305 302 302 305
300 299 305 324 337 346 343 338 340 349 350 343 342 333 322 317 314 312 308 307 306 305
312 335 338 345 4 358 350 7 5 360 353 348 351 350 343 329 320 325 329 325 318 317
352 340 347 29 9 1 3 11 360 2 3 357 350 343 340 338 330 330 330 330 328 324
334 341 30 16 12 12 14 12 6 1 2 358 355 352 345 336 327 330 328 333 340 335
Wind_Speed_850mb
16 11 12 16 19 24 28 24 23 21 23 23 31 46 42 40 41 46 49 53 58 63
3 8 7 17 22 17 16 12 14 15 19 25 26 29 37 44 49 54 57 62 66 70
12 15 10 7 9 15 13 14 17 21 26 32 35 42 51 56 60 67 70 72 75 75
5 8 3 7 7 7 9 16 24 30 36 43 49 54 57 59 62 67 69 69 73 75
13 12 13 17 18 19 22 24 29 35 40 46 52 57 61 64 65 68 71 71 71 72
18 20 22 24 27 31 33 38 42 46 50 52 56 58 57 57 58 59 62 65 70 75
23 26 28 30 34 39 44 45 46 46 47 47 47 44 41 40 44 48 49 51 53 55
17 21 27 34 39 39 36 37 36 35 34 33 33 32 32 39 46 48 50 49 47 46
25 29 34 36 36 35 33 27 29 31 34 37 36 34 38 42 47 51 55 57 58 59
27 30 32 28 28 29 26 30 34 36 38 33 30 27 35 39 45 51 54 58 62 61
27 24 23 22 22 20 30 36 35 34 35 36 36 37 39 39 44 49 53 57 60 63
16 21 26 22 20 30 38 35 40 44 44 42 39 41 41 38 43 53 58 58 61 64
16 21 22 17 25 29 34 38 43 40 45 45 50 46 43 43 46 55 59 64 66 57
12 20 11 18 19 28 34 38 38 43 51 57 54 51 44 41 43 45 54 61 52 46
Wind_Direction_850mb
230 196 184 179 204 215 217 210 206 213 204 203 215 241 235 240 247 254 258 260 262 265
288 225 236 173 166 171 186 184 197 223 236 244 244 246 253 256 261 265 268 270 269 267
293 224 283 244 191 213 246 266 274 280 279 279 280 274 272 271 271 273 272 272 271 272
236 62 169 223 194 225 275 285 287 289 291 292 288 288 287 287 284 281 280 279 280 278
345 341 317 332 330 324 320 312 309 305 301 298 295 293 293 291 289 288 286 284 282 281
334 328 330 326 324 321 318 315 312 308 305 303 301 300 300 299 296 294 292 290 288 286
325 324 319 317 318 317 315 315 314 310 307 306 304 306 308 309 312 308 306 302 298 300
307 302 307 309 311 316 325 327 325 324 321 321 317 315 316 318 316 311 305 302 305 305
300 306 307 311 318 328 331 331 334 331 329 319 307 304 312 313 311 313 307 303 302 299
292 296 299 304 316 324 330 331 330 329 329 327 328 325 319 315 310 308 305 302 302 305
300 299 305 324 337 346 343 338 340 349 350 343 342 333 322 317 314 312 308 307 306 305
312 335 338 345 4 358 350 7 5 360 353 348 351 350 343 329 320 325 329 325 318 317
352 340 347 29 9 1 3 11 360 2 3 357 350 343 340 338 330 330 330 330 328 324
334 341 30 16 12 12 14 12 6 1 2 358 355 352 345 336 327 330 328 333 340 335